カタログに戻る

ONEWEB-0243

運用中通信PO
NORAD 48774·PAYLOAD·🇬🇧 United Kingdom

打ち上げ May 28, 2021 から Vostochny Cosmodrome

Loading…

次のパス (今後24時間)

TLE

最新Source: CelesTrak SupGP

元期: Sep 14, 2026, 17:51 UTC

1 48774C 21045H   26257.74389306  .00001471  00000+0  39113-2 0  2572
2 48774  87.8973 241.3590 0002483  79.2420 315.8179 13.15542307    15

AllMySatでONEWEB-0243をリアルタイム追跡

Download on the App Store